<?xml version="1.0" encoding="UTF-8" standalone="no" ?>
<gpx xmlns="http://www.topografix.com/GPX/1/1" xmlns:xsi="http://www.w3.org/2001/XMLSchema-instance" xsi:schemaLocation="http://www.topografix.com/GPX/1/1 http://www.topografix.com/GPX/1/1/gpx.xsd" version="1.1" creator="VisuGPX - https://www.visugpx.com">
  <metadata>
    <name>Murlin12km</name>
  </metadata>
  <trk>
    <name><![CDATA[Murlin12km]]></name>
    <trkseg>
      <trkpt lat="47.20241" lon="3.17955">
        <ele>228.3</ele>
        <time>2017-11-24T17:24:03Z</time>
      </trkpt>
      <trkpt lat="47.2015" lon="3.17835">
        <ele>232.1</ele>
        <time>2017-11-24T17:24:03Z</time>
      </trkpt>
      <trkpt lat="47.20083" lon="3.17662">
        <ele>237</ele>
        <time>2017-11-24T17:24:03Z</time>
      </trkpt>
      <trkpt lat="47.19914" lon="3.17449">
        <ele>242.2</ele>
        <time>2017-11-24T17:24:03Z</time>
      </trkpt>
      <trkpt lat="47.19844" lon="3.1715">
        <ele>242</ele>
        <time>2017-11-24T17:24:03Z</time>
      </trkpt>
      <trkpt lat="47.20029" lon="3.17117">
        <ele>239</ele>
        <time>2017-11-24T17:24:03Z</time>
      </trkpt>
      <trkpt lat="47.20119" lon="3.17082">
        <ele>237.7</ele>
        <time>2017-11-24T17:24:03Z</time>
      </trkpt>
      <trkpt lat="47.20189" lon="3.17076">
        <ele>236.7</ele>
        <time>2017-11-24T17:24:03Z</time>
      </trkpt>
      <trkpt lat="47.20362" lon="3.1712">
        <ele>235.3</ele>
        <time>2017-11-24T17:24:03Z</time>
      </trkpt>
      <trkpt lat="47.2039" lon="3.16769">
        <ele>227.6</ele>
        <time>2017-11-24T17:24:03Z</time>
      </trkpt>
      <trkpt lat="47.2042" lon="3.16632">
        <ele>226.9</ele>
        <time>2017-11-24T17:24:03Z</time>
      </trkpt>
      <trkpt lat="47.20494" lon="3.16427">
        <ele>223.8</ele>
        <time>2017-11-24T17:24:03Z</time>
      </trkpt>
      <trkpt lat="47.20496" lon="3.16378">
        <ele>224.4</ele>
        <time>2017-11-24T17:24:03Z</time>
      </trkpt>
      <trkpt lat="47.20592" lon="3.16233">
        <ele>227.2</ele>
        <time>2017-11-24T17:24:03Z</time>
      </trkpt>
      <trkpt lat="47.2062" lon="3.16227">
        <ele>228.2</ele>
        <time>2017-11-24T17:24:03Z</time>
      </trkpt>
      <trkpt lat="47.20698" lon="3.16287">
        <ele>227.8</ele>
        <time>2017-11-24T17:24:03Z</time>
      </trkpt>
      <trkpt lat="47.20732" lon="3.16164">
        <ele>231</ele>
        <time>2017-11-24T17:24:03Z</time>
      </trkpt>
      <trkpt lat="47.20665" lon="3.16118">
        <ele>231</ele>
        <time>2017-11-24T17:24:03Z</time>
      </trkpt>
      <trkpt lat="47.20611" lon="3.16035">
        <ele>232</ele>
        <time>2017-11-24T17:24:03Z</time>
      </trkpt>
      <trkpt lat="47.20568" lon="3.15898">
        <ele>232.5</ele>
        <time>2017-11-24T17:24:03Z</time>
      </trkpt>
      <trkpt lat="47.20514" lon="3.15786">
        <ele>233.9</ele>
        <time>2017-11-24T17:24:03Z</time>
      </trkpt>
      <trkpt lat="47.20425" lon="3.15693">
        <ele>234</ele>
        <time>2017-11-24T17:24:03Z</time>
      </trkpt>
      <trkpt lat="47.20342" lon="3.15504">
        <ele>234.3</ele>
        <time>2017-11-24T17:24:03Z</time>
      </trkpt>
      <trkpt lat="47.20332" lon="3.15383">
        <ele>235.2</ele>
        <time>2017-11-24T17:24:03Z</time>
      </trkpt>
      <trkpt lat="47.2036" lon="3.1517">
        <ele>238.9</ele>
        <time>2017-11-24T17:24:03Z</time>
      </trkpt>
      <trkpt lat="47.20314" lon="3.14682">
        <ele>257.9</ele>
        <time>2017-11-24T17:24:03Z</time>
      </trkpt>
      <trkpt lat="47.2031" lon="3.14502">
        <ele>270.1</ele>
        <time>2017-11-24T17:24:03Z</time>
      </trkpt>
      <trkpt lat="47.20236" lon="3.14414">
        <ele>270.7</ele>
        <time>2017-11-24T17:24:03Z</time>
      </trkpt>
      <trkpt lat="47.19933" lon="3.14463">
        <ele>262.2</ele>
        <time>2017-11-24T17:24:03Z</time>
      </trkpt>
      <trkpt lat="47.19816" lon="3.14452">
        <ele>259.5</ele>
        <time>2017-11-24T17:24:03Z</time>
      </trkpt>
      <trkpt lat="47.19686" lon="3.14515">
        <ele>254.9</ele>
        <time>2017-11-24T17:24:03Z</time>
      </trkpt>
      <trkpt lat="47.19721" lon="3.14915">
        <ele>241.1</ele>
        <time>2017-11-24T17:24:03Z</time>
      </trkpt>
      <trkpt lat="47.19771" lon="3.15296">
        <ele>233.6</ele>
        <time>2017-11-24T17:24:03Z</time>
      </trkpt>
      <trkpt lat="47.19723" lon="3.15668">
        <ele>237.1</ele>
        <time>2017-11-24T17:24:03Z</time>
      </trkpt>
      <trkpt lat="47.1987" lon="3.16172">
        <ele>230.6</ele>
        <time>2017-11-24T17:24:03Z</time>
      </trkpt>
      <trkpt lat="47.19875" lon="3.16263">
        <ele>230.9</ele>
        <time>2017-11-24T17:24:03Z</time>
      </trkpt>
      <trkpt lat="47.19799" lon="3.16739">
        <ele>239.2</ele>
        <time>2017-11-24T17:24:03Z</time>
      </trkpt>
      <trkpt lat="47.19082" lon="3.15759">
        <ele>241.1</ele>
        <time>2017-11-24T17:24:03Z</time>
      </trkpt>
      <trkpt lat="47.18788" lon="3.16504">
        <ele>260.1</ele>
        <time>2017-11-24T17:24:03Z</time>
      </trkpt>
      <trkpt lat="47.18965" lon="3.16643">
        <ele>264</ele>
        <time>2017-11-24T17:24:03Z</time>
      </trkpt>
      <trkpt lat="47.19108" lon="3.17394">
        <ele>249.1</ele>
        <time>2017-11-24T17:24:03Z</time>
      </trkpt>
      <trkpt lat="47.18981" lon="3.17468">
        <ele>247.9</ele>
        <time>2017-11-24T17:24:03Z</time>
      </trkpt>
      <trkpt lat="47.18857" lon="3.17703">
        <ele>253.5</ele>
        <time>2017-11-24T17:24:03Z</time>
      </trkpt>
      <trkpt lat="47.18894" lon="3.17917">
        <ele>260.6</ele>
        <time>2017-11-24T17:24:03Z</time>
      </trkpt>
      <trkpt lat="47.19446" lon="3.17977">
        <ele>237.1</ele>
        <time>2017-11-24T17:24:03Z</time>
      </trkpt>
      <trkpt lat="47.195" lon="3.18018">
        <ele>235.7</ele>
        <time>2017-11-24T17:24:03Z</time>
      </trkpt>
      <trkpt lat="47.19409" lon="3.18084">
        <ele>243.3</ele>
        <time>2017-11-24T17:24:03Z</time>
      </trkpt>
      <trkpt lat="47.19295" lon="3.18076">
        <ele>251.2</ele>
        <time>2017-11-24T17:24:03Z</time>
      </trkpt>
      <trkpt lat="47.19223" lon="3.18172">
        <ele>261.1</ele>
        <time>2017-11-24T17:24:03Z</time>
      </trkpt>
      <trkpt lat="47.19375" lon="3.18188">
        <ele>252.6</ele>
        <time>2017-11-24T17:24:03Z</time>
      </trkpt>
      <trkpt lat="47.1955" lon="3.18328">
        <ele>251</ele>
        <time>2017-11-24T17:24:03Z</time>
      </trkpt>
      <trkpt lat="47.19639" lon="3.1838">
        <ele>248.3</ele>
        <time>2017-11-24T17:24:03Z</time>
      </trkpt>
      <trkpt lat="47.19732" lon="3.185">
        <ele>249.3</ele>
        <time>2017-11-24T17:24:03Z</time>
      </trkpt>
      <trkpt lat="47.19827" lon="3.18561">
        <ele>246.8</ele>
        <time>2017-11-24T17:24:03Z</time>
      </trkpt>
      <trkpt lat="47.19901" lon="3.18657">
        <ele>245.7</ele>
        <time>2017-11-24T17:24:03Z</time>
      </trkpt>
      <trkpt lat="47.19979" lon="3.18665">
        <ele>240.9</ele>
        <time>2017-11-24T17:24:03Z</time>
      </trkpt>
      <trkpt lat="47.20041" lon="3.18492">
        <ele>234.5</ele>
        <time>2017-11-24T17:24:03Z</time>
      </trkpt>
      <trkpt lat="47.20083" lon="3.18426">
        <ele>232.3</ele>
        <time>2017-11-24T17:24:03Z</time>
      </trkpt>
      <trkpt lat="47.2015" lon="3.18372">
        <ele>231.5</ele>
        <time>2017-11-24T17:24:03Z</time>
      </trkpt>
      <trkpt lat="47.20238" lon="3.18353">
        <ele>231.4</ele>
        <time>2017-11-24T17:24:03Z</time>
      </trkpt>
      <trkpt lat="47.20238" lon="3.18213">
        <ele>226.4</ele>
        <time>2017-11-24T17:24:03Z</time>
      </trkpt>
      <trkpt lat="47.20223" lon="3.18144">
        <ele>226</ele>
        <time>2017-11-24T17:24:03Z</time>
      </trkpt>
      <trkpt lat="47.20239" lon="3.18035">
        <ele>226.8</ele>
        <time>2017-11-24T17:24:03Z</time>
      </trkpt>
      <trkpt lat="47.20269" lon="3.17985">
        <ele>227.2</ele>
        <time>2017-11-24T17:24:03Z</time>
      </trkpt>
      <trkpt lat="47.20241" lon="3.17955">
        <ele>228.3</ele>
        <time>2017-11-24T17:24:03Z</time>
      </trkpt>
    </trkseg>
  </trk>
</gpx>